Zurück zum Katalog

ARIANE 1 DEB

AktivHEO
NORAD 26922·DEBRIS·🇫🇷 France

Gestartet Mar 5, 1984 von Guiana Space Centre

Loading…

Nächste Überflüge (nächste 24 Stunden)

TLE

AktuellSource: Space-Track

Epoche: Sep 9, 2026, 09:16 UTC

1 26922U 84023H   26252.38641990 -.00000049  00000-0  00000-0 0  9999
2 26922   8.6985 193.3342 6453428 223.6662  64.4444  2.77110296286347

Verfolge ARIANE 1 DEB in Echtzeit mit AllMySat

Download on the App Store